Regional Weather Roundup
Issued by NWS Upton, NY

Current Version | Previous Version | Text Only | Print | Product List | Glossary Off
Versions: 1 2 3 4 5 6 7 8 9 10 11 12 13 14 15 16 17 18 19 20 21 22 23 24 25 26 27 28 29 30 31 32 33 34 35 36 37 38 39 40 41 42 43 44 45 46 47 48 49 50
000 ASUS41 KOKX 311105 RWROKX REGIONAL WEATHER ROUNDUP NATIONAL WEATHER SERVICE NEW YORK NY 700 AM EDT FRI JUL 31 2015 NOTE: "FAIR" INDICATES FEW OR NO CLOUDS BELOW 12,000 FEET WITH NO SIGNIFICANT WEATHER AND/OR OBSTRUCTIONS TO VISIBILITY. NYZ071-072-176-178-NJZ106-104-311200- NEW YORK CITY METRO AREA CITY SKY/WX TMP DP RH WIND PRES REMARKS CENTRAL PARK SUNNY 73 62 68 CALM 29.90R LAGUARDIA APRT MOSUNNY 75 60 59 NW8 29.86R KENNEDY INTL MOSUNNY 76 60 57 NW7 29.87R NEWARK/LIBERTY MOSUNNY 74 62 66 W6 29.87R BRNX BOT. GARD N/A 72 59 64 NE6 29.89S TETERBORO SUNNY 73 60 63 NW3 29.86R $$ NYZ177-179-078>081-311200- LONG ISLAND NEW YORK CITY SKY/WX TMP DP RH WIND PRES REMARKS FARMINGDALE MOSUNNY 73 63 70 NW6 29.86R ISLIP PTSUNNY 72 68 87 NW5 29.84R SHIRLEY PTSUNNY 73 70 90 NW5 29.86R WESTHAMPTON CLOUDY 70 69 97 CALM 29.86R FOG MONTAUK POINT N/A 73 71 93 W3 29.85R $$ NYZ052-065-067-311200- HUDSON VALLEY CITY SKY/WX TMP DP RH WIND PRES REMARKS WHITE PLAINS SUNNY 70 64 81 NW6 29.87R NEWBURGH SUNNY 64 63 94 W6 29.88R MONTGOMERY SUNNY 64 61 90 S6 29.87R POUGHKEEPSIE SUNNY 65 63 93 CALM 29.85R ALBANY MOSUNNY 70 59 68 W10 29.83R $$ NJZ001-105-106-008-010-013-015-019>022-104-311200- NEW JERSEY CITY SKY/WX TMP DP RH WIND PRES REMARKS NEWARK/LIBERTY MOSUNNY 74 62 66 W6 29.87R TETERBORO SUNNY 73 60 63 NW3 29.86R CALDWELL SUNNY 68 62 81 CALM 29.88R MORRISTOWN SUNNY 68 68 100 CALM 29.88R SOMERVILLE MOSUNNY 64 63 96 CALM 29.87R SUSSEX SUNNY 61 61 100 SW3 29.89R ANDOVER N/A 62 62 100 CALM 29.90R TRENTON SUNNY 69 63 81 NW6 29.88R MILLVILLE SUNNY 71 63 75 NW6 29.90R ATLANTIC CITY SUNNY 71 68 90 VRB3 29.89S WRIGHTSTOWN SUNNY 69 69 98 W3 29.87R TOMS RIVER N/A 72 66 83 CALM 29.89R BELMAR SUNNY 70 64 83 W3 29.88S $$ PAZ047>061-062-071-311200- EASTERN PENNSYLVANIA CITY SKY/WX TMP DP RH WIND PRES REMARKS PHILADELPHIA SUNNY 72 60 66 SW3 29.89S ALLENTOWN SUNNY 65 62 90 W3 29.91R SCRANTON SUNNY 63 58 83 CALM 29.92R $$ CTZ002-004>006-009-010-012-RIZ004-006-007-MAZ004-011-015-311200- SOUTHERN NEW ENGLAND IN CT CITY SKY/WX TMP DP RH WIND PRES REMARKS BRADLEY INTL MOSUNNY 69 65 86 SW3 29.83R HARTFORD SUNNY 71 70 96 SE3 29.84R DANBURY SUNNY 66 62 87 SW3 29.88R WTRBRY/OXFORD SUNNY 70 63 78 CALM 29.89R BRIDGEPORT SUNNY 72 66 81 CALM 29.85R MERIDEN SUNNY 68 66 93 CALM 29.85R NEW HAVEN SUNNY 72 68 87 CALM 29.84R CHESTER FAIR 70 66 88 NW3 29.86R GROTON SUNNY 72 70 93 CALM 29.83R FOG WILLIMANTIC FOG 68 67 96 CALM 29.85R VSB 1/4 IN RI CITY SKY/WX TMP DP RH WIND PRES REMARKS PROVIDENCE MOSUNNY 73 69 87 W9 29.82R BLOCK ISLAND N/A 70 70 100 W7 29.85R VSB<1/4 WESTERLY FOG 71 71 100 CALM 29.84R VSB 1/2 IN MA CITY SKY/WX TMP DP RH WIND PRES REMARKS BOSTON MOSUNNY 74 63 68 W9 29.80R WORCESTER SUNNY 67 63 87 W8 29.85R WESTFIELD SUNNY 64 63 96 CALM 29.84R PROVINCETOWN SUNNY 72 64 78 W8 29.80R NANTUCKET PTSUNNY 72 70 93 W7 29.81R $$ ANZ330-335-338-340-345-350-353-355-311200- COASTAL MARINE OBSERVATIONS STATION/POSITION TIME SKY/WX TEMP WIND PRES VSBY WAVE AIR SEA DIR/SP/G HT/PER (UTC) (F) (DEG/KT/KT) (MB) (MI) (FT/S) NY HARB ENTRANCE 0950 75 76 310/ 10/ 12 1010.4 2/ 5 4S FIRE IS NOT AVBL 20S FIRE ISLAND 0950 75 74 320/ 10/ 12 1010.1 3/ 6 GREAT SOUTH BAY 1015 74 80 330/ 8/ 10 N/A 23SW MTP 1050 70 72 280/ 6/ 6 1010.1 3/ 6 HUDSON CANYON NOT AVBL KINGS POINT 1000 73 69 10/ 2/ 4 1010.2 EXECUTION ROCKS 1000 72 290/ 4/ 4 N/A CENTRAL LI SOUND NOT AVBL EASTERN LI SOUND 1000 70 68 290/ 6/ 6 N/A ROBBINS REEF 1000 75 300/ 6/ 7 1010.1 $$ >>>>>>>>>>>>>>>>>>>>>>>>>>>> KEY <<<<<<<<<<<<<<<<<<<<<<<<<<< > < > SKY/WX - SKY CONDITION/PRESENT WEATHER < > TMP - TEMPERATURE IN FAHRENHEIT < > DP - DEWPOINT IN FAHRENHEIT < > RH - RELATIVE HUMIDITY IN PERCENT < > WIND - DIRECTION AND SPEED IN MPH < > PRES - MEAN SEA LEVEL PRESSURE IN INCHES OF HG < > WCI - WIND CHILL INDEX < > VSB - VISIBILITY IN MILES < > HX - HEAT INDEX < > TC - TEMPERATURE IN CELSIUS < > VRB - VARIABLE WIND DIRECTION < > < >>>>>>>>>>>>>>>>>>>>>>>>>>>> KEY <<<<<<<<<<<<<<<<<<<<<<<<<<<

USA.gov is the U.S. government's official web portal to all federal, state and local government web resources and services.